Location: Astronomy Club of Akron Observatory
(40.9700°N, 81.5606°W)
Time: 15:41:12
(UTC-04:00)

Daily predictions for brighter satellites

Satellite Brightness Start Highest point End
(mag) Time Altitude Azimuth Time Altitude Azimuth Time Altitude Azimuth
Cosmos 1844 Rocket 3.3 20:29:10 10° N 20:34:32 41° ENE 20:39:51 10° SE
Cosmos 2263 Rocket 3.6 20:31:05 10° NW 20:36:25 42° WSW 20:41:41 10° S
Cosmos 1455 3.8 20:35:47 10° SE 20:38:15 17° E 20:40:44 10° NE
Cosmos 2237 Rocket 3.7 20:40:09 10° SE 20:43:14 15° E 20:46:19 10° ENE
Cosmos 1892 3.8 20:40:20 10° NNE 20:43:41 27° ENE 20:47:00 10° SE
Cosmos 2219 Rocket 2.8 20:38:58 10° SSE 20:43:57 33° ESE 20:48:56 10° NE
Cosmos 2074 Rocket 4.1 20:38:09 10° S 20:44:26 86° E 20:50:46 10° N
EO 1 Del DPAF 4.4 20:40:48 10° N 20:44:30 48° WNW 20:48:10 10° SSW
Cosmos 2322 Rocket 4.4 20:39:30 10° WSW 20:44:31 31° WNW 20:49:34 10° N
ERS-2 2.2 20:41:33 10° SSE 20:45:08 57° ENE 20:48:45 10° N
Lacrosse 5 4.4 20:43:02 10° NW 20:45:48 14° NNW 20:48:35 10° NNE
BREEZE-M DEB (TANK) 3.9 20:41:20 10° WNW 20:46:55 37° N 20:49:26 10° E
NOSS 2-1 (E) 3.4 20:45:18 10° SSW 20:48:45 46° ESE 20:52:32 10° NE
Cosmos 1610 Rocket 4.5 20:44:50 10° S 20:50:51 64° E 20:56:57 10° NNE
ATLAS CENTAUR R/B 2.5 20:48:45 10° SSE 20:51:11 17° ESE 20:53:40 10° ENE
Cosmos 2278 Rocket 3.7 20:47:04 10° N 20:51:18 21° NE 20:55:31 10° E
Cosmos 1666 Rocket 3.9 20:53:24 10° N 20:57:46 48° E 21:02:05 10° SSE
USA 186 1.0 20:55:40 10° SSE 20:57:49 50° ENE 21:00:01 10° N
Resurs 1-3 3.9 20:54:57 10° SSE 20:59:12 50° ENE 21:03:27 10° N
NOSS 3-3 (A) 4.1 20:54:47 10° S 21:00:28 48° ESE 21:06:40 10° NE
NOSS 3-3 (C) 4.1 20:54:54 10° S 21:00:35 47° ESE 21:06:45 10° NE
OAO 2 Rocket 4.0 20:55:59 10° WSW 21:00:54 42° S 21:04:58 14° ESE
H-2A R/B 3.9 20:58:38 10° E 21:01:06 14° ENE 21:03:34 10° NNE
YAOGAN 6 2.5 21:02:42 10° SSE 21:06:15 70° ENE 21:09:54 10° N
Cosmos 494 Rocket 4.4 21:01:13 10° NNW 21:06:22 65° WSW 21:11:32 10° S
Cosmos 1809 Rocket 4.4 21:04:27 10° S 21:10:36 82° E 21:16:49 10° N
USA 267 4.3 21:07:33 10° ENE 21:12:18 21° ESE 21:17:00 10° S
Sich 1 2.9 21:08:38 10° N 21:12:56 79° E 21:17:12 10° S
In-Cosmos 22 Rocket 4.4 21:07:55 10° NNW 21:13:23 71° W 21:18:42 10° S
Nadezhda 3 Rocket 4.0 21:07:53 10° N 21:14:12 75° E 21:20:32 10° SSE
Cosmos 1340 2.8 21:11:11 10° SSW 21:14:58 79° W 21:18:47 10° N
Cosmos 1151 Rocket 3.9 21:13:26 15° SE 21:16:16 29° E 21:19:56 10° NNE
Cosmos 2251 Rocket 3.5 21:12:13 10° NNW 21:17:38 87° ENE 21:23:00 10° SSE
Cosmos 1939 Rocket 2.8 21:16:48 10° S 21:20:39 82° WSW 21:24:33 10° NNW
SJ-6B 4.5 21:17:54 10° SSW 21:21:37 35° W 21:25:18 10° NNW
Envisat 4.1 21:20:14 10° S 21:25:04 44° W 21:29:56 10° NNW
Cosmos 1825 3.3 21:24:28 10° NNE 21:27:40 25° ENE 21:28:24 24° E
Meteor 2-3 Rocket 3.7 21:24:07 10° N 21:29:43 70° E 21:34:38 14° SSE
Meteor 2-14 Rocket 4.4 21:24:00 10° S 21:30:06 87° E 21:36:15 10° N
Cosmos 1633 Rocket 3.0 21:27:23 10° N 21:31:45 86° W 21:35:52 11° S
SL-16 R/B 3.9 21:33:18 14° E 21:33:18 14° E 21:35:00 10° ENE
Cosmos 2098 Rocket 4.2 21:31:01 24° ESE 21:31:56 25° E 21:35:22 10° NE
Cosmos 1869 4.3 21:34:42 26° E 21:34:57 27° E 21:38:21 10° NNE
Cosmos 2228 Rocket 3.2 21:32:02 15° SSE 21:35:29 51° E 21:39:46 10° NNE
SL-8 R/B 4.0 21:34:16 10° SSW 21:38:46 42° SE 21:41:34 21° E
Meteor 2-16 Rocket 4.4 21:32:49 10° S 21:38:58 84° E 21:45:07 10° N
SL-24 R/B - RUBIN 2 4.0 21:35:29 10° NW 21:39:45 56° WSW 21:42:35 20° S
Cosmos 1515 Rocket 3.6 21:37:19 14° S 21:40:58 59° E 21:45:23 10° NNE
ARGOS 3.5 21:44:34 28° SE 21:46:57 46° ENE 21:52:04 10° N
Helios 1A 4.5 21:49:42 21° ENE 21:49:51 21° ENE 21:53:03 10° NNE
BREEZE-M DEB (TANK) 3.1 21:47:42 10° NW 21:50:44 31° NNE 21:51:02 30° NNE
GEOS 3 Rocket 4.0 21:45:52 10° NE 21:50:54 41° ESE 21:55:48 10° S
SL-08 RB Rocket 4.3 21:52:57 34° E 21:53:48 37° ENE 21:57:56 10° N
MetOp-B 4.5 21:51:53 32° ESE 21:53:55 47° ENE 21:59:02 10° N
Resurs 01 Rocket 2.9 21:53:03 10° SSW 21:57:11 38° W 22:01:21 10° NNW
Cosmos 1980 3.6 21:52:58 10° SSW 21:58:37 74° ESE 22:04:18 10° NNE
Cosmos 1328 Rocket 4.3 21:57:56 10° SSW 22:02:14 53° W 22:06:36 10° N
BREEZE-M DEB (TANK) 4.4 21:56:56 10° WNW 22:02:53 27° NNW 22:05:12 12° NE
Cosmos 1727 Rocket 4.3 21:57:02 10° N 22:02:59 48° ENE 22:04:57 36° SE
Cosmos 2333 Rocket 2.6 21:59:20 10° SW 22:04:55 63° WNW 22:10:33 10° NNE
Cosmos 1959 Rocket 4.4 22:00:08 17° S 22:04:59 73° E 22:11:06 10° NNE
Spot 2 Rocket 4.4 22:03:43 12° S 22:08:08 45° W 22:13:01 10° NNW
COSMOS 2428 4.4 22:05:13 10° WSW 22:10:25 35° WNW 22:15:38 10° N
Cosmos 1470 Rocket 4.0 22:08:31 10° NNW 22:12:51 58° W 22:14:51 30° SSW
Meteor 2-10 Rocket 3.8 22:11:14 39° SSE 22:13:12 59° E 22:18:55 10° NNE
Cosmos 1455 4.1 22:10:15 10° SW 22:13:38 30° WNW 22:17:04 10° NNW
ATLAS 2AS CENTAUR R/B 3.0 22:06:46 10° NW 22:14:39 76° WSW 22:18:17 33° SSE
Cosmos 2218 Rocket 4.0 22:11:56 15° S 22:17:17 90° W 22:23:43 10° N
Cosmos 1844 Rocket 4.4 22:13:27 10° NW 22:18:12 28° WSW 22:22:47 11° SSW
SL-08 R/B 4.4 22:15:09 28° S 22:18:41 75° E 22:25:06 10° N
Terra 3.5 22:21:55 20° ENE 22:21:55 20° ENE 22:24:54 10° NNE
ATLAS 2A CENTAUR R/B 4.5 22:11:38 10° SW 22:23:48 26° S 22:24:57 26° SSE
Cosmos 1408 3.3 22:21:21 10° NNW 22:24:53 48° W 22:25:16 46° WSW
Cosmos 2237 Rocket 2.4 22:20:59 10° SSW 22:26:35 72° WNW 22:32:13 10° NNE
Cosmos 2219 Rocket 3.7 22:22:38 10° SW 22:27:48 36° WNW 22:33:00 10° N
ATLAS CENTAUR R/B 2.7 22:26:26 10° WSW 22:29:49 35° NW 22:33:22 10° NNE
SPOT 5 3.2 22:30:51 47° ENE 22:30:51 47° ENE 22:34:51 10° N
Lacrosse 5 4.3 22:28:00 10° NNW 22:30:45 14° NNE 22:33:30 10° NE
SPOT 1/Viking Rocket 3.8 22:31:21 49° ENE 22:31:31 49° ENE 22:36:33 10° N
Cosmos 2366 rocket 4.0 22:27:19 21° SSW 22:31:37 77° W 22:37:56 10° N
USA 81 3.9 22:27:10 10° N 22:32:27 72° E 22:32:58 67° SE
MetOp-A 4.4 22:33:31 42° SSW 22:35:13 65° WSW 22:40:34 10° NNW
Cosmos 2278 Rocket 2.5 22:30:14 10° NNW 22:35:51 63° WSW 22:37:22 45° SSW
Genesis I 4.1 22:32:11 10° NW 22:35:57 43° WSW 22:35:57 43° WSW
H-2A R/B 2.0 22:39:08 61° SSW 22:39:56 75° WSW 22:44:57 10° NNW
NOSS 3-4 (A) 4.0 22:37:56 10° NNW 22:44:56 63° NE 22:46:43 50° ESE
NOSS 3-4 (C) 4.0 22:38:03 10° NNW 22:45:02 63° NE 22:46:49 49° ESE
ATLAS 5 CENTAUR R/B 4.5 22:43:48 10° N 22:47:08 15° NNE 22:49:40 12° ENE
Cosmos 407 Rocket 3.3 22:42:59 10° NNW 22:48:01 79° NE 22:48:01 79° NE
ERS-1 Rocket 3.1 22:50:18 61° SW 22:50:46 64° WSW 22:55:47 10° NNW
USA 267 3.1 22:49:16 10° NE 22:55:52 85° SE 23:02:24 10° SW
Cosmos 1825 4.5 23:00:19 10° NW 23:03:03 19° W 23:03:17 19° W
Cosmos 1869 Rocket 4.3 22:59:19 10° NNW 23:02:44 50° NW 23:02:44 50° NW
Cosmos 676 Rocket 4.3 23:00:33 10° NNW 23:05:05 61° NNE 23:05:05 61° NNE
SL-19 R/B 4.2 23:09:46 84° NW 23:09:46 84° NW 23:15:13 10° NNW
Cosmos 2344 3.4 23:10:53 64° SSE 23:11:44 69° ESE 23:19:53 10° NE
Cosmos 2056 Rocket 4.4 23:13:06 33° WSW 23:15:05 47° WNW 23:20:18 10° N
SL-16 R/B 2.3 23:15:04 71° W 23:15:14 71° WNW 23:20:55 10° NNE
Helios 1B rocket 4.0 23:12:00 10° N 23:14:22 32° N 23:14:22 32° N
USA 234 3.8 23:27:53 45° ENE 23:28:59 49° NNE 23:35:14 10° NW
Cosmos 1934 Rocket 4.2 23:31:58 59° NNE 23:31:58 59° NNE 23:36:53 10° N
Cosmos 1943 Rocket 3.9 23:28:28 10° N 23:32:07 23° NE 23:32:07 23° NE
CZ-2C R/B 4.2 23:39:38 34° N 23:39:38 34° N 23:42:24 10° N
